Terminal Aerodrome Forecast
Issued by NWS

Home | Current Version | Previous Version | Text Only | Print | Product List | Glossary On
Versions: 1 2 3 4 5 6 7 8 9 10 11 12 13 14 15 16 17 18 19 20 21 22 23 24 25 26 27 28 29 30 31 32
000
FTUS44 KFWD 181800 AAA
TAFFTW
TAF AMD
KFTW 181826Z 1818/1918 07004KT 3SM BR OVC005
     FM181930 05005KT 5SM BR OVC008
     FM190300 03007KT 3SM BR OVC004
     FM191200 03008KT 2SM -RA BR OVC004=

USA.gov is the U.S. government's official web portal to all federal, state and local government web resources and services.